COSMOS 249 DEB, 14410

Orbit data source: Space-Track

COSMOS 249 DEB, 14410 is space debris in LEO originally from a launch on Sun, 20 Oct 1968 UTC launched from the Tyuratam Missile And Space Complex (TTMTR). Debris objects in space refer to the collection of defunct objects orbiting the Earth. Examples of debris include non-operational satellites, rocket bodies, and fragments generated from explosions, collisions, or faulty payload assembly.

Loading next visibility...
Identifier
14410, 1968-091CL
Orbit
LEO
Country
Flag of CISCIS
Related business
Manufacturer
Unknown
Mission
Spacecraft
Bus & Motor
Unknown
Mass
Unknown
Launch date (UTC)
1968-10-20 (57 years ago)
Launch vehicle
Unknown
Launch site
Tyuratam Missile And Space Complex (TTMTR)
Object type
Payload
Rocket body
Debris
Shape & HBR
Unknown shape, 0.1 m
Radar Cross Section
Small (<0.1 m²)

Expand to show TLE details & history
Last TLE update: 1 month ago

TLE from 1 month ago
0 COSMOS 249 DEB
1 14410U 68091CL  26005.96427247  .00011014  00000-0  39418-2 0  9992
2 14410  62.2056 359.7752 0308571 245.4200 140.7263 14.11062230 81262
Epoch: 2026-01-05T23:08Z
TLE epoch observation values (Epoch: 2026-01-05T23:08:33.141Z)
Latitude
24.85983°
Longitude
-78.8545°
Altitude
1,033.022 km
Speed
7.249 km/s
True Right ascension
00h 55m 20s
True Declination
24° 44' 02"
Sunlit
Object was in daylight at epoch
Visualization orbit readout
Latitude
Unknown
Longitude
Unknown
Altitude
Unknown
Speed
Unknown
Apparent Right ascension
Unknown
Apparent Declination
Unknown
Sunlit
N/A
Visualization observer readout
Local Sidereal Time
05:54:30
Azimuth
Unknown
Elevation
Unknown
Doppler factor
Unknown
Orbital elements
Apogee altitude
1,077.868 km
Perigee altitude
631.5 km
Semi-major axis
7,232.821 km
Eccentricity
0.03086
Inclination
62.2056°
RAAN
359.7752°
Arg. of periapsis
245.42°
True anomaly
142.89917°
Mean anomaly
140.7263°
Eccentric anomaly
141.81917°
Mean motion
3.52843 °/min
Orbital period
102.03 mins
BSTAR
0.0039418
Loading maneuver chart data...
Computing Atmospheric mass density...

Documentation

Showing up to 5 results
|